Theta_e
346 346 346 345 346 348 350 351 349 350 352 352 352 351 350 350 350 349 349 343 341 341 341 342 345 345 343 342 344 345 346 345 343 343 343 344 344 346 344 343 343 343 343
346 344 346 346 350 351 351 350 351 352 352 350 351 352 351 350 351 352 350 349 342 341 342 341 342 342 342 343 345 345 344 343 345 346 346 348 348 346 343 343 343 341 341
348 346 347 349 351 351 353 353 353 351 351 351 351 351 350 351 351 353 353 351 349 342 341 341 341 342 343 343 343 342 345 348 349 349 348 348 345 344 345 344 341 339 340
349 349 348 350 350 352 352 351 350 351 349 349 349 349 350 350 351 351 352 352 351 349 344 341 341 342 343 344 342 346 348 348 348 347 347 344 344 344 343 341 339 338 337
349 349 349 351 350 351 350 349 350 351 350 349 348 348 349 349 348 348 352 354 353 351 350 346 340 342 343 345 341 342 345 347 347 346 344 343 343 343 342 340 339 337 337
348 349 348 350 349 350 350 349 353 351 350 349 345 347 348 348 347 347 346 351 353 353 351 353 350 352 344 345 343 342 342 342 342 342 343 341 339 338 336 335 337 337 336
347 349 347 348 349 351 353 351 353 353 349 349 348 348 347 348 346 346 344 349 353 352 353 353 352 352 353 348 346 343 342 341 342 343 342 342 341 338 334 330 331 336 337
341 348 349 347 348 349 354 354 354 351 349 349 348 346 345 343 344 344 345 348 352 352 353 354 353 354 354 353 355 348 342 342 342 342 343 344 342 336 325 325 329 331 332
349 345 348 346 349 348 350 354 354 353 348 350 353 348 344 344 343 343 346 347 351 350 351 354 353 354 356 354 354 352 347 342 343 346 347 345 341 331 320 323 324 328 329
349 345 345 345 347 346 351 353 354 353 351 347 349 346 352 350 346 344 347 346 346 346 347 349 347 350 352 354 353 353 355 346 343 347 346 344 338 330 320 321 320 324 325
348 346 347 348 347 346 353 354 355 352 352 350 347 347 347 346 346 347 346 345 346 349 349 350 348 349 349 350 353 353 348 347 345 343 345 343 338 332 323 322 323 325 320
346 347 350 350 343 346 353 355 355 351 349 351 351 350 345 344 345 348 347 346 347 346 347 349 350 350 350 348 350 353 350 347 347 344 343 343 340 335 328 325 326 323 319
347 347 350 351 347 350 352 355 355 351 354 351 353 347 347 345 344 345 346 344 346 347 347 349 350 353 352 350 349 351 350 348 348 346 343 342 340 336 332 326 323 320 318
348 347 351 351 352 350 351 352 350 350 349 351 352 352 348 347 347 347 346 344 344 343 345 349 349 351 353 351 351 349 350 350 349 348 344 342 341 337 335 332 325 321 319
348 349 352 352 351 352 352 351 351 350 352 352 350 352 352 347 347 348 348 348 346 346 345 351 347 353 353 353 353 353 354 354 349 348 345 343 342 339 336 334 330 324 322
349 350 352 352 353 353 353 352 349 351 352 351 349 349 352 347 349 350 349 349 349 347 347 344 346 348 352 351 352 351 353 350 347 348 346 344 343 341 338 335 333 329 326
350 351 351 350 351 352 353 354 350 350 352 352 351 351 352 351 350 349 349 350 349 350 350 347 349 349 354 353 352 355 355 354 353 350 347 346 344 342 339 336 334 331 326
351 351 351 352 349 347 349 349 351 349 350 351 350 351 350 350 351 349 350 350 350 350 350 351 348 347 352 352 354 355 353 351 351 353 351 347 345 343 340 338 335 332 327
353 351 351 352 352 351 350 347 349 349 349 349 350 350 351 350 350 350 349 349 349 351 350 350 349 350 349 351 351 354 353 353 353 352 350 347 346 345 342 339 335 329 323
353 353 352 352 352 352 351 351 347 350 349 349 349 350 350 351 351 351 350 349 351 348 348 350 348 348 349 349 351 350 350 350 351 350 347 345 343 342 340 335 329 326 323
353 354 353 352 353 352 351 350 351 350 349 350 349 350 350 352 352 351 350 347 348 350 347 349 349 346 346 347 350 352 350 350 355 351 345 341 341 338 335 330 328 325 322
354 353 352 353 354 352 350 348 349 350 351 350 350 350 351 349 348 347 346 344 346 351 350 348 347 346 348 348 350 351 349 350 352 348 342 339 337 334 332 329 325 324 320
353 353 353 353 353 353 350 348 348 347 348 348 349 350 350 347 347 350 351 348 345 345 346 349 350 349 349 351 351 352 351 351 351 345 344 336 334 329 326 324 323 320 316
354 352 353 352 352 350 347 344 342 343 348 349 348 349 350 349 349 349 350 351 350 350 349 348 348 350 350 351 351 352 352 352 350 346 344 341 327 324 322 321 319 316 313
350 351 351 351 350 347 344 341 341 345 346 349 349 349 349 350 350 349 347 347 347 348 348 349 348 348 346 345 347 351 349 350 348 346 341 339 329 320 319 318 316 314 312
345 345 345 345 347 346 346 344 342 342 344 346 346 347 347 348 348 349 348 347 347 347 348 348 347 346 346 345 344 344 348 348 347 339 338 333 322 319 316 316 315 313 310
Wind_Speed
9 9 7 7 6 5 3 2 2 2 2 1 2 2 2 2 2 1 1 0 3 4 3 1 2 2 4 4 5 5 6 6 6 6 5 4 4 4 4 5 5 5 5
9 9 9 7 5 2 1 3 3 2 2 1 1 1 3 3 2 1 1 2 2 3 3 1 1 1 2 4 6 6 5 5 6 7 6 5 5 4 6 7 8 8 6
9 9 9 6 4 1 1 2 2 2 2 3 2 1 2 3 2 2 2 2 3 3 4 3 3 3 2 4 5 4 4 6 8 7 6 4 3 4 6 5 7 6 6
9 9 8 5 3 1 2 2 1 1 1 4 2 1 2 2 3 3 2 2 3 3 3 3 3 2 2 4 5 4 4 5 5 3 1 1 3 3 4 4 4 5 5
7 8 7 5 2 2 2 1 1 1 3 3 3 1 0 1 3 4 4 1 2 2 2 3 4 3 1 3 4 3 3 4 3 2 2 3 3 3 3 3 4 7 5
6 7 6 5 3 3 3 1 1 2 2 1 0 1 1 2 3 4 5 1 3 3 3 3 3 3 2 1 2 2 3 3 2 2 3 4 4 4 4 4 3 2 1
8 8 8 6 5 4 3 2 2 2 2 0 3 3 4 4 3 4 4 2 4 3 3 4 4 3 3 2 2 1 2 2 3 4 4 4 4 5 4 3 1 2 4
12 9 9 8 7 6 4 4 5 4 2 2 5 6 4 2 1 2 2 1 3 3 3 5 5 5 4 4 5 2 1 1 2 3 4 4 4 4 3 2 1 2 2
10 13 10 8 8 8 7 6 6 5 6 3 3 4 5 5 7 3 2 1 3 2 3 5 6 7 7 5 6 5 3 3 2 3 1 2 3 2 2 2 2 3 3
12 11 12 10 9 9 8 7 7 6 5 7 3 4 3 5 6 4 6 1 4 6 6 6 6 7 8 8 8 9 7 5 4 4 4 3 2 0 2 2 2 2 3
13 12 10 10 11 12 9 7 6 4 5 7 6 4 5 6 6 7 7 2 3 1 5 5 5 5 6 8 9 9 9 7 6 5 5 3 1 0 1 2 2 2 2
14 14 11 10 9 15 12 10 7 7 7 6 5 6 8 7 6 5 5 5 5 3 5 4 5 5 6 8 10 11 10 8 7 7 6 5 3 2 2 2 2 0 0
16 16 15 12 10 13 11 10 9 8 8 10 8 10 8 10 9 9 9 9 6 7 4 5 3 3 4 6 8 12 12 10 9 8 7 7 6 5 4 4 3 3 2
18 16 17 15 14 13 13 12 13 12 12 11 11 10 10 10 10 11 10 9 7 9 5 7 3 3 3 5 7 10 12 12 12 11 10 9 8 8 7 7 5 5 5
14 15 17 17 15 14 14 13 13 13 12 11 12 12 12 12 11 11 11 10 10 7 6 6 5 2 2 3 6 5 7 11 12 11 11 11 11 11 10 9 8 8 7
17 13 16 16 16 15 15 14 14 14 14 13 13 12 13 13 11 11 11 10 11 12 8 7 8 4 6 6 5 5 7 9 12 11 12 13 13 13 12 11 10 10 9
20 18 18 18 17 17 18 18 18 16 15 16 14 11 13 14 14 13 11 11 12 12 11 12 6 8 8 8 7 7 7 7 11 10 12 13 13 13 13 12 12 11 10
21 21 19 19 19 19 18 19 20 17 20 18 17 17 17 15 15 14 13 12 10 10 12 13 15 14 8 10 9 9 10 12 10 11 11 12 13 14 14 14 13 12 12
22 22 21 22 21 20 21 19 19 19 19 19 19 17 18 17 16 15 13 12 13 11 13 14 14 12 13 11 11 11 11 11 9 12 12 12 13 13 13 12 13 13 11
23 23 23 24 24 24 22 20 22 21 20 20 20 19 18 20 18 16 16 15 13 12 12 15 16 14 14 14 13 14 13 12 9 7 8 9 7 9 11 12 13 12 11
24 23 23 25 24 23 24 22 20 22 23 22 22 21 21 21 21 18 16 16 15 15 15 13 16 16 17 14 10 11 14 8 9 8 7 7 10 9 11 11 11 11 11
23 23 22 23 23 24 25 27 25 22 20 22 23 21 21 20 21 22 24 20 19 17 16 17 18 17 12 15 15 14 15 12 9 9 7 10 10 10 10 9 11 11 11
21 21 21 21 22 20 20 21 23 21 24 24 23 23 22 22 22 21 21 21 21 22 24 21 20 20 17 15 15 14 16 14 14 8 8 6 9 7 7 9 11 11 10
19 20 19 19 19 18 19 18 17 15 19 23 24 24 23 22 21 20 20 19 19 20 21 24 24 25 21 17 15 13 12 11 5 7 9 6 8 6 7 7 10 10 10
13 13 15 16 16 16 17 15 13 15 18 18 19 23 24 24 24 25 25 23 24 23 21 24 26 25 24 23 18 11 13 12 12 10 12 7 8 8 7 8 9 10 9
8 10 11 11 12 13 13 16 18 16 20 19 19 20 21 25 25 25 25 24 25 26 23 19 22 28 27 23 18 16 13 15 12 6 10 10 10 10 6 10 12 11 11
Wind_Direction
155 157 156 155 145 149 176 220 210 234 276 326 318 312 358 -0 17 44 96 259 180 188 206 244 249 289 307 319 320 323 324 326 325 321 315 320 339 17 35 31 20 9 1
160 159 159 156 146 158 187 187 213 213 247 199 207 311 324 337 315 312 263 232 184 187 182 166 122 72 35 359 331 327 330 358 30 53 62 74 66 32 56 48 38 34 44
165 165 163 158 143 125 75 183 198 225 255 203 195 244 343 351 3 332 274 211 216 204 193 175 135 108 60 32 2 352 27 52 61 76 71 41 21 65 52 30 36 27 23
172 174 169 165 160 126 142 169 226 192 186 176 142 119 38 19 11 5 28 202 193 186 193 187 161 134 69 39 26 60 75 101 96 73 78 45 52 62 62 30 16 25 42
181 180 175 174 169 175 182 214 110 23 153 149 157 162 246 2 2 13 9 178 198 180 177 214 183 161 111 39 31 65 80 97 107 108 61 49 61 57 32 12 41 59 51
191 189 189 182 188 209 212 181 101 79 96 144 17 71 281 302 328 344 354 285 175 193 194 197 187 202 251 21 28 62 78 84 97 84 76 68 57 44 34 40 92 89 359
195 202 203 196 205 218 230 217 223 183 149 111 273 223 246 263 287 323 344 313 171 191 208 212 207 200 197 268 299 38 78 80 102 113 103 60 35 24 18 21 29 269 289
211 199 207 209 208 219 223 232 237 241 228 240 309 294 294 224 125 333 331 303 191 195 234 235 232 228 222 211 221 266 193 128 103 112 83 36 8 3 15 31 1 331 344
218 209 208 203 209 210 226 221 221 240 265 237 272 306 302 326 340 156 235 237 193 225 276 254 248 240 235 220 222 235 229 197 169 118 16 306 334 351 31 54 40 43 34
211 210 208 211 214 218 226 226 224 237 244 266 256 254 277 307 314 306 173 242 258 258 277 276 249 248 237 230 222 220 226 223 190 182 188 239 264 46 91 77 72 73 36
204 203 204 214 222 219 219 222 209 225 249 272 267 258 261 261 254 288 311 13 265 267 294 271 252 257 237 231 218 225 238 231 218 212 220 238 241 89 106 91 86 57 27
203 205 207 215 230 206 209 215 213 213 237 254 258 263 264 277 274 267 269 279 321 302 329 271 263 259 254 236 224 221 232 231 224 226 230 238 235 215 191 177 157 167 30
208 207 205 207 209 203 208 221 230 238 236 245 242 257 257 266 271 277 286 283 289 301 300 285 252 262 263 235 226 225 238 236 234 228 229 231 231 227 221 220 230 253 290
214 216 213 211 211 214 219 225 232 244 245 243 243 249 260 258 261 262 268 290 283 274 237 271 242 278 282 252 235 243 234 248 234 229 224 228 230 232 235 238 241 247 262
231 216 214 211 213 216 222 226 232 236 242 242 241 243 246 256 254 253 255 260 274 283 276 152 274 132 311 293 247 245 248 256 239 234 226 230 231 233 235 237 240 245 252
232 236 219 218 216 220 224 227 237 237 236 237 237 238 243 256 248 247 251 249 254 266 276 274 251 288 294 299 261 255 258 249 247 243 231 233 234 236 236 239 241 244 254
231 230 229 227 230 228 226 224 232 244 234 233 240 246 247 258 259 238 248 242 246 255 281 275 295 262 270 270 269 273 261 246 257 255 240 239 239 240 238 238 241 245 250
232 233 233 238 234 237 240 246 246 235 241 241 237 240 245 246 243 260 247 256 261 250 252 265 273 273 258 259 264 264 261 260 262 260 265 237 236 238 236 237 243 250 249
230 233 232 233 235 234 233 240 245 245 242 246 246 244 247 245 242 248 247 262 252 238 249 255 269 259 262 265 261 256 254 256 252 247 254 234 230 232 235 241 241 234 227
229 234 237 238 237 237 238 238 237 238 240 243 249 255 250 243 237 235 241 248 251 263 260 258 264 260 250 255 254 263 255 240 238 231 214 213 225 226 229 222 218 222 221
228 233 238 240 238 239 238 237 242 245 243 243 247 252 251 245 235 232 227 241 253 254 260 249 253 258 262 261 256 253 251 247 228 215 197 203 217 208 211 208 217 213 211
235 235 235 232 234 236 240 239 233 240 248 250 251 246 248 253 254 245 241 242 243 247 254 263 260 263 272 275 262 254 256 248 237 203 195 201 200 200 209 206 209 205 201
231 230 231 231 232 233 238 240 242 244 249 246 248 251 247 248 242 245 250 251 248 248 243 246 251 260 270 261 265 263 261 257 244 196 181 180 192 182 183 205 206 197 190
227 228 224 228 233 238 239 244 254 256 251 248 246 248 247 247 241 239 244 245 250 252 251 245 243 250 256 259 251 254 255 252 207 199 197 184 177 173 182 189 182 183 186
231 231 229 228 229 236 243 245 253 249 252 251 249 248 249 250 248 245 240 240 251 254 256 248 245 244 249 246 237 238 243 226 239 218 201 180 164 138 148 163 177 186 188
211 214 227 232 232 235 246 241 242 247 254 254 254 255 254 253 253 250 250 244 244 250 248 239 242 244 252 251 244 232 247 234 239 171 202 173 164 162 139 165 184 186 180